Newburgh, NY

12:14 PM EDT on May 22, 2017 (GMT -0400)
Stewart International

Weather History for KSWF - January, 2014

Change the Weather History Date:

Friday, January 10, 2014

  Actual Average Record
Temperature  
Mean Temperature 26 °F -  
Max Temperature 32 °F 33 °F 60 °F (2016)
Min Temperature 21 °F 17 °F -5 °F (1981)
Degree Days  
Heating Degree Days 38    
Moisture  
Dew Point 26 °F    
Average Humidity 93    
Maximum Humidity 100    
Minimum Humidity 74    
Precipitation  
Precipitation 0.00 in - - ()
Sea Level Pressure  
Sea Level Pressure 30.38 in    
Wind  
Wind Speed 1 mph (NNE)    
Max Wind Speed 6 mph    
Max Gust Speed -    
Visibility 5 miles    
Events Snow    
Averages and records for this station are not official NWS values.
T = Trace of Precipitation, MM = Missing Value Source: NWS Daily Summary

Daily Weather History Graph

Daily Weather History Graph

Search for Another Location

Airport or City:

Trip Planner

Search our weather history database for the weather conditions in past years. The results will help you decide how hot, cold, wet, or windy it might be!

Date:

Astronomy

Jan. 10, 2014 Rise Set
Actual Time 7:22 AM EST 4:46 PM EST
Civil Twilight 6:51 AM EST 5:16 PM EST
Nautical Twilight 6:16 AM EST 5:51 PM EST
Astronomical Twilight 5:43 AM EST 6:24 PM EST
Moon 12:49 PM EST (1/10) 2:26 AM EST (1/10)
Length of Visible Light 10h 25m
Length of Day
9h 23m
Waxing Gibbous, 75% of the Moon is Illuminated
Jan 10
Waxing Gibbous
Jan 15
Full
Jan 24
Last Quarter
Jan 30
New
Feb 6
First Quarter

Hourly Weather History & Observations

Time (EST) Temp. Windchill Dew Point Humidity Pressure Visibility Wind Dir Wind Speed Gust Speed Precip Events Conditions
12:45 AM 23.0 °F - 15.8 °F 74% 30.55 in 10.0 mi Calm Calm - N/A   Overcast
3:45 AM 21.2 °F 13.6 °F 19.4 °F 93% 30.54 in 1.5 mi West 5.8 mph - N/A Snow Light Snow
4:45 AM 21.2 °F 13.6 °F 21.2 °F 100% 30.49 in 5.0 mi NW 5.8 mph - N/A Snow Light Snow
6:15 AM 21.2 °F - 21.2 °F 100% 30.49 in 5.0 mi Calm Calm - N/A Snow Light Snow
8:45 AM 23.0 °F - 21.2 °F 93% - 5.0 mi Calm Calm - N/A   Overcast
9:45 AM 24.8 °F - 23.0 °F 93% 30.47 in 6.0 mi Calm Calm - N/A Snow Light Snow
10:45 AM 26.6 °F - 24.8 °F 93% 30.46 in 2.0 mi Calm Calm - N/A Snow Light Snow
11:45 AM 26.6 °F - 24.8 °F 93% 30.43 in 2.0 mi Calm Calm - N/A Snow Light Snow
12:45 PM 28.4 °F - 26.6 °F 93% 30.39 in 7.0 mi Calm Calm - N/A   Clear
1:45 PM 30.2 °F - 26.6 °F 86% 30.37 in 7.0 mi Calm Calm - N/A   Overcast
2:45 PM 32.0 °F - 28.4 °F 87% 30.36 in 7.0 mi Calm Calm - N/A   Overcast
3:45 PM 32.0 °F - 28.4 °F 87% 30.35 in 7.0 mi Calm Calm - N/A   Overcast
4:45 PM 30.2 °F - 28.4 °F 93% 30.33 in 6.0 mi Calm Calm - N/A   Mostly Cloudy
5:45 PM 30.2 °F - 28.4 °F 93% 30.33 in 6.0 mi Calm Calm - N/A   Overcast
6:45 PM 30.2 °F - 28.4 °F 93% 30.32 in 6.0 mi Calm Calm - N/A   Overcast
7:45 PM 32.0 °F - 30.2 °F 93% 30.31 in 4.0 mi Calm Calm - N/A   Overcast
8:45 PM 32.0 °F - 30.2 °F 93% 30.29 in 3.0 mi Calm Calm - N/A   Overcast
9:45 PM 32.0 °F - 32.0 °F 100% 30.29 in 3.0 mi Calm Calm - N/A   Overcast
10:20 PM 32.0 °F - 32.0 °F 100% 30.27 in 1.2 mi Calm Calm - N/A   Overcast
10:45 PM 32.0 °F 26.4 °F 32.0 °F 100% 30.26 in 1.0 mi East 5.8 mph - N/A   Overcast
11:45 PM 32.0 °F 26.4 °F 32.0 °F 100% 30.22 in 1.0 mi ENE 5.8 mph - N/A   Overcast